Content
SEND FEEDBACK

Canada Flag

QUEBEC CITY, QUEBEC


Home > North America > Canada > Quebec
Elevation: 72 meters     Latitude: 46 48N     Longitude: 071 23W

WEATHER
 
SELECT A DAY
Number of Records: 215,370;   Date Range: 6/30/96 - 3/22/16
 
SHARE

PRINT THIS DATA

[ ← Previous Day ]
WEATHER ALMANAC - 14 AUGUST, 2013
[ Next Day → ]
[ °F ]   °C
Weather ElementAverageHighLow
Temperature14.2 °C18 °C (3:00 pm)12 °C (9:00 pm)
Dewpoint4.1 °C13.3 °C (11:00 am) (7:00 pm)
Humidity85.7 %100 % (10:00 am)61 % (5:00 pm)
Wind Speed13.7 km/h27.8 km/h (1:00 pm)
Wind Gust37 km/h (4:00 pm)
Weather ElementAverage
Visibility21.9 km
Wind DirectionSSW (213.3 °)

Weather ElementTotal
Precipitation---
Heating Degree Days3.3 (Base 18.3)
Growing Degree Days5 (Base 10)
Averaged from 42 records on 14 August, 2013
WEATHER CONDITIONS BREAKOUT
WIND DIRECTION BREAKOUT
WEATHER BY HOUR - 14 AUGUST, 2013
[ °F ]   °C
Local TimeTemperatureDewpointHumidityBarometerVisibilityWind DirectionWind SpeedGust SpeedPrecipitationEventsConditions
1:00 AM13 °C12 °C94 %1005.8 hPa9.7 kmNE (40°)16.7 km/hRainRain
2:00 AM12.8 °C12.2 °C94 %1003.4 hPaENE (70°)9.3 km/h
2:00 AM13 °C12 °C94 %1004.1 hPa16.1 kmNE (50°)18.5 km/hRainRain
2:24 AM13 °C-17.8 °C16.1 kmNE (50°)11.1 km/hRainLight Rain
2:51 AM13 °C-17.8 °C16.1 kmNorth (350°)5.6 km/hRainLight Rain
3:00 AM13 °C12 °C94 %1004.4 hPa9.7 kmNNE (20°)9.3 km/hRainLight Rain
4:00 AM13 °C12 °C94 %1004.4 hPa16.1 kmSouth (180°)7.4 km/hRainLight Rain
5:00 AM12.8 °C12.2 °C95 %1003.7 hPaSE (140°)5.6 km/h
5:00 AM13 °C12 °C94 %1004.4 hPa16.1 kmSE (130°)5.6 km/hRainLight Rain
6:00 AM13 °C12 °C94 %1004.7 hPa16.1 kmSouth (180°)9.3 km/hOvercast
7:00 AM13 °C12 °C94 %1005.1 hPa16.1 kmSSW (200°)9.3 km/hOvercast
8:00 AM13 °C12 °C94 %1005.1 hPa4.8 kmSouth (170°)9.3 km/hOvercast
8:00 AM12.8 °C12.2 °C95 %1004.1 hPaSouth (180°)9.3 km/h
8:11 AM13 °C-17.8 °C2.9 kmSouth (170°)11.1 km/hRainLight Rain
8:27 AM13 °C-17.8 °C4 kmSouth (190°)9.3 km/hRainLight Rain
9:00 AM13 °C12 °C94 %1005.1 hPa4 kmSSW (200°)9.3 km/hLight Drizzle
9:46 AM13 °C-17.8 °C4.8 kmSSW (200°)9.3 km/hLight Drizzle
10:00 AM13 °C13 °C100 %1005.1 hPa4.8 kmWSW (240°)13 km/hLight Drizzle
10:09 AM14 °C-17.8 °C3.2 kmSW (230°)9.3 km/hLight Drizzle
10:16 AM14 °C-17.8 °C4.8 kmSW (230°)9.3 km/hLight Drizzle
10:45 AM14 °C-17.8 °C9.7 kmSSW (210°)11.1 km/hOvercast
11:00 AM15 °C13 °C88 %1004.4 hPa16.1 kmSW (230°)20.4 km/hOvercast
11:00 AM14.4 °C13.3 °C92 %1003.4 hPaSW (230°)7.4 km/h
11:48 AM16 °C-17.8 °C16.1 kmWSW (240°)22.2 km/hOvercast
12:00 PM16 °C13 °C82 %1004.4 hPa16.1 kmWSW (240°)22.2 km/hRainLight Rain Showers
1:00 PM16 °C13 °C82 %1004.4 hPa32.2 kmWest (260°)27.8 km/hMostly Cloudy
1:27 PM17 °C-17.8 °C32.2 kmWSW (250°)22.2 km/hMostly Cloudy
2:00 PM17 °C12 °C72 %1004.1 hPa48.3 kmWest (270°)22.2 km/hMostly Cloudy
2:00 PM17.2 °C13.3 °C70 %1003.4 hPaWest (260°)18.5 km/h
3:00 PM18 °C12 °C68 %1004.1 hPa48.3 kmWNW (290°)18.5 km/hMostly Cloudy
4:00 PM17 °C11 °C68 %1004.4 hPa48.3 kmNW (310°)22.2 km/h37 km/hMostly Cloudy
4:29 PM16 °C-17.8 °C48.3 kmNW (310°)22.2 km/h37 km/hRainLight Rain Showers
5:00 PM16 °C10 °C68 %1005.8 hPa48.3 kmWNW (300°)22.2 km/h35.2 km/hMostly Cloudy
5:00 PM16.1 °C10.6 °C61 %1005.1 hPaWNW (300°)18.5 km/h
6:00 PM15 °C11 °C77 %1006.8 hPa48.3 kmWest (270°)13 km/hMostly Cloudy
7:00 PM15 °C11 °C77 %1008.5 hPa48.3 kmSW (230°)13 km/hMostly Cloudy
8:00 PM13.9 °C11.7 °C80 %1008.5 hPaWSW (240°)9.3 km/h
8:00 PM14 °C11 °C82 %1009.1 hPa48.3 kmWSW (250°)18.5 km/hScattered Clouds
9:00 PM12 °C10 °C88 %1009.8 hPa24.1 kmWest (260°)11.1 km/hScattered Clouds
10:00 PM12 °C11 °C94 %1010.2 hPa24.1 kmWest (260°)5.6 km/hPartly Cloudy
11:00 PM12.2 °C11.1 °C89 %1009.5 hPaWest (270°)9.3 km/h
11:00 PM13 °C11 °C88 %1010.2 hPa24.1 kmWest (260°)18.5 km/hPartly Cloudy
Hourly data recorded from CYQB, located 0 kilometers away from Quebec City, Quebec




STORIES FROM OUR PARTNERS